EW6810 Weather Reports


Display with metric or nautical units.
time (UTC)temp
F
wind
direction
speed
MPH
gust
MPH
rain 1hr
in
rain 24hr
in
rain mn
in
humidity
%
barometer
mb
20260906225031 72 169 1.0 5.0 0.00 0.00 0.00 60 1010.6
20260906224528 71 171 1.0 5.0 0.00 0.00 0.00 60 1010.7
20260906224027 71 127 1.0 4.0 0.00 0.00 0.00 62 1010.8
20260906223526 71 39 1.0 5.0 0.00 0.00 0.00 63 1010.8
20260906223025 70 19 2.0 6.0 0.00 0.00 0.00 65 1010.9
20260906222524 69 117 1.0 5.0 0.00 0.00 0.00 64 1010.9
20260906222025 69 132 2.0 6.0 0.00 0.00 0.00 65 1011.0
20260906221524 70 201 1.0 6.0 0.00 0.00 0.00 65 1011.1
20260906221024 69 170 1.0 3.0 0.00 0.00 0.00 66 1011.0
20260906220524 69 169 0.0 3.0 0.00 0.00 0.00 66 1011.0
20260906220022 69 158 1.0 3.0 0.00 0.00 0.00 63 1011.0
20260906215522 70 4 0.0 5.0 0.00 0.00 0.00 63 1011.0
20260906215022 70 176 1.0 5.0 0.00 0.00 0.00 63 1011.0
20260906214521 69 164 2.0 6.0 0.00 0.00 0.00 61 1011.1
20260906214020 70 170 2.0 5.0 0.00 0.00 0.00 61 1011.1
20260906213520 70 232 0.0 5.0 0.00 0.00 0.00 62 1011.2
20260906213020 70 180 2.0 5.0 0.00 0.00 0.00 60 1011.2
20260906212518 70 68 1.0 4.0 0.00 0.00 0.00 62 1011.2
20260906212017 69 73 1.0 5.0 0.00 0.00 0.00 62 1011.2
20260906211517 69 128 2.0 5.0 0.00 0.00 0.00 61 1011.3
20260906211017 70 45 1.0 5.0 0.00 0.00 0.00 60 1011.3
20260906210515 69 174 2.0 6.0 0.00 0.00 0.00 61 1011.3
20260906210014 69 223 1.0 4.0 0.00 0.00 0.00 61 1011.4
20260906205516 69 148 0.0 6.0 0.00 0.00 0.00 64 1011.5
20260906205013 68 312 2.0 6.0 0.00 0.00 0.00 61 1011.5
20260906204515 69 134 2.0 5.0 0.00 0.00 0.00 58 1011.5
20260906204011 69 111 1.0 6.0 0.00 0.00 0.00 59 1011.6
20260906203511 69 192 1.0 6.0 0.00 0.00 0.00 59 1011.7
20260906203010 68 120 1.0 5.0 0.00 0.00 0.00 60 1011.7
20260906202509 69 173 1.0 5.0 0.00 0.00 0.00 59 1011.7
20260906202009 68 152 2.0 5.0 0.00 0.00 0.00 60 1011.8
20260906201508 67 154 1.0 7.0 0.00 0.00 0.00 65 1011.8
20260906201007 67 226 3.0 7.0 0.00 0.00 0.00 62 1011.9
20260906200507 67 147 3.0 7.0 0.00 0.00 0.00 63 1011.9
20260906200007 68 157 3.0 6.0 0.00 0.00 0.00 61 1012.0
20260906195505 69 152 1.0 5.0 0.00 0.00 0.00 63 1012.0
20260906195004 68 150 1.0 5.0 0.00 0.00 0.00 65 1012.1
20260906194503 68 176 1.0 4.0 0.00 0.00 0.00 63 1012.1
20260906194005 68 52 1.0 5.0 0.00 0.00 0.00 67 1012.1
20260906193501 66 166 1.0 5.0 0.00 0.00 0.00 67 1012.1
20260906193101 66 131 2.0 6.0 0.00 0.00 0.00 64 1012.1
20260906192559 66 196 2.0 6.0 0.00 0.00 0.00 65 1012.2
20260906192059 66 169 1.0 6.0 0.00 0.00 0.00 65 1012.3
20260906191558 66 199 2.0 6.0 0.00 0.00 0.00 65 1012.4
20260906191056 65 154 1.0 6.0 0.00 0.00 0.00 66 1012.4
20260906190559 66 185 1.0 5.0 0.00 0.00 0.00 65 1012.4
20260906185553 66 189 0.0 4.0 0.00 0.00 0.00 68 1012.6
20260906185052 66 171 1.0 6.0 0.00 0.00 0.00 65 1012.6
20260906184608 66 184 0.0 6.0 0.00 0.00 0.00 69 1012.7
20260906184053 65 152 1.0 4.0 0.00 0.00 0.00 67 1012.7
20260906183549 65 210 2.0 4.0 0.00 0.00 0.00 66 1012.7
20260906183049 65 25 1.0 4.0 0.00 0.00 0.00 68 1012.7
20260906182546 64 186 1.0 4.0 0.00 0.00 0.00 68 1012.8
20260906182046 64 134 1.0 5.0 0.00 0.00 0.00 67 1012.9
20260906181549 64 158 1.0 5.0 0.00 0.00 0.00 68 1012.9
20260906181043 64 118 1.0 4.0 0.00 0.00 0.00 70 1012.8
20260906180542 64 68 0.0 5.0 0.00 0.00 0.00 71 1012.9
20260906180041 63 152 0.0 5.0 0.00 0.00 0.00 70 1012.9
20260906175543 64 46 0.0 4.0 0.00 0.00 0.00 70 1012.9
20260906175041 63 42 0.0 6.0 0.00 0.00 0.00 72 1012.9
20260906174537 63 211 0.0 7.0 0.00 0.00 0.00 73 1013.0
20260906174036 62 186 2.0 7.0 0.00 0.00 0.00 73 1013.1
20260906173533 62 229 1.0 7.0 0.00 0.00 0.00 74 1013.1
20260906173033 62 49 0.0 4.0 0.00 0.00 0.00 75 1013.1
20260906172531 61 136 1.0 4.0 0.00 0.00 0.00 75 1013.2
20260906172029 60 95 1.0 4.0 0.00 0.00 0.00 76 1013.2
20260906171528 60 173 1.0 3.0 0.00 0.00 0.00 76 1013.3
20260906171026 60 137 0.0 3.0 0.00 0.00 0.00 76 1013.3
20260906170529 60 355 0.0 3.0 0.00 0.00 0.00 76 1013.3
20260906170024 59 73 0.0 3.0 0.00 0.00 0.00 77 1013.3
20260906165526 59 39 0.0 3.0 0.00 0.00 0.00 78 1013.4
20260906165026 59 16 1.0 3.0 0.00 0.00 0.00 78 1013.5
20260906164530 58 140 0.0 3.0 0.00 0.00 0.00 80 1013.5
20260906164020 58 140 0.0 3.0 0.00 0.00 0.00 80 1013.5
20260906163519 58 130 0.0 3.0 0.00 0.00 0.00 80 1013.5
20260906163023 57 130 1.0 3.0 0.00 0.00 0.00 80 1013.5
20260906162518 57 128 1.0 3.0 0.00 0.00 0.00 79 1013.6
20260906162014 57 20 0.0 2.0 0.00 0.00 0.00 79 1013.4
20260906161513 56 17 0.0 1.0 0.00 0.00 0.00 81 1013.6
20260906161012 55 17 0.0 1.0 0.00 0.00 0.00 84 1013.6
20260906160511 55 17 0.0 2.0 0.00 0.00 0.00 87 1013.6
20260906160010 53 17 0.0 2.0 0.00 0.00 0.00 89 1013.6
20260906155512 51 17 1.0 3.0 0.00 0.00 0.00 88 1013.6
20260906155007 51 17 1.0 4.0 0.00 0.00 0.00 88 1013.6
20260906154506 51 17 2.0 4.0 0.00 0.00 0.00 88 1013.7
20260906154005 51 59 1.0 3.0 0.00 0.00 0.00 88 1013.7
20260906153504 51 59 1.0 3.0 0.00 0.00 0.00 87 1013.7
20260906153004 51 59 1.0 2.0 0.00 0.00 0.00 87 1013.7
20260906152503 51 59 0.0 2.0 0.00 0.00 0.00 87 1013.8
20260906152004 51 59 0.0 2.0 0.00 0.00 0.00 87 1013.8
20260906151503 51 59 0.0 2.0 0.00 0.00 0.00 87 1013.8
20260906151004 51 59 1.0 2.0 0.00 0.00 0.00 87 1013.8
20260906150502 51 59 1.0 2.0 0.00 0.00 0.00 87 1013.8
20260906150001 51 59 0.0 3.0 0.00 0.00 0.00 87 1013.7
20260906145502 51 59 0.0 3.0 0.00 0.00 0.00 87 1013.6
20260906145002 51 59 2.0 3.0 0.00 0.00 0.00 87 1013.6
20260906144501 51 92 0.0 3.0 0.00 0.00 0.00 87 1013.7
20260906144002 51 92 0.0 3.0 0.00 0.00 0.00 87 1013.6
20260906143600 51 93 1.0 2.0 0.00 0.00 0.00 87 1013.7
20260906143100 51 91 1.0 2.0 0.00 0.00 0.00 87 1013.5
20260906142559 51 91 0.0 3.0 0.00 0.00 0.00 87 1013.5
20260906142059 51 91 1.0 3.0 0.00 0.00 0.00 87 1013.5
20260906141609 51 24 0.0 3.0 0.00 0.00 0.00 87 1013.4
20260906141059 51 17 1.0 3.0 0.00 0.00 0.00 88 1013.4
20260906140559 51 47 1.0 6.0 0.00 0.00 0.00 88 1013.4
20260906135558 51 303 0.0 4.0 0.00 0.00 0.00 88 1013.5
20260906135058 51 81 1.0 6.0 0.00 0.00 0.00 88 1013.4
20260906134609 51 259 2.0 6.0 0.00 0.00 0.00 87 1013.4
20260906134057 51 344 0.0 7.0 0.00 0.00 0.00 87 1013.4
20260906133557 51 342 2.0 7.0 0.00 0.00 0.00 87 1013.4
20260906133057 51 304 1.0 4.0 0.00 0.00 0.00 87 1013.5
20260906132556 51 343 0.0 0.0 0.00 0.00 0.00 87 1013.4
20260906132055 51 343 0.0 0.0 0.00 0.00 0.00 87 1013.5
20260906131555 51 343 0.0 0.0 0.00 0.00 0.00 87 1013.5
20260906131054 51 343 0.0 0.0 0.00 0.00 0.00 86 1013.5
20260906130554 51 343 0.0 1.0 0.00 0.00 0.00 86 1013.5
20260906130123 51 343 0.0 2.0 0.00 0.00 0.00 86 1013.5
20260906125554 52 343 0.0 2.0 0.00 0.00 0.00 86 1013.5
20260906125053 52 343 1.0 2.0 0.00 0.00 0.00 86 1013.5
20260906124555 52 343 0.0 2.0 0.00 0.00 0.00 86 1013.5
20260906124052 52 343 0.0 2.0 0.00 0.00 0.00 86 1013.6
20260906123551 52 343 0.0 2.0 0.00 0.00 0.00 86 1013.6
20260906123051 52 343 1.0 3.0 0.00 0.00 0.00 86 1013.6
20260906122551 52 343 0.0 3.0 0.00 0.00 0.00 86 1013.6
20260906122051 52 347 0.0 2.0 0.00 0.00 0.00 86 1013.5
20260906121602 52 348 1.0 3.0 0.00 0.00 0.00 86 1013.5
20260906121049 52 348 1.0 3.0 0.00 0.00 0.00 85 1013.5
20260906120549 52 348 2.0 3.0 0.00 0.00 0.00 86 1013.6
20260906115549 53 346 0.0 2.0 0.00 0.00 0.00 86 1013.5
20260906115048 53 347 0.0 3.0 0.00 0.00 0.00 86 1013.4
20260906114548 53 346 1.0 3.0 0.00 0.00 0.00 86 1013.4
20260906114048 53 346 1.0 3.0 0.00 0.00 0.00 86 1013.5
20260906113547 53 23 0.0 3.0 0.00 0.00 0.00 85 1013.5
20260906113053 53 23 2.0 3.0 0.00 0.00 0.00 85 1013.5
20260906112547 53 23 1.0 6.0 0.00 0.00 0.00 86 1013.5
20260906112047 53 13 1.0 6.0 0.00 0.00 0.00 86 1013.4
20260906111547 53 204 2.0 8.0 0.00 0.00 0.00 86 1013.4
20260906111047 53 16 2.0 9.0 0.00 0.00 0.00 87 1013.5
20260906110547 53 152 2.0 8.0 0.00 0.00 0.00 87 1013.5
20260906110045 53 340 0.0 4.0 0.00 0.00 0.00 87 1013.4
20260906105545 52 352 1.0 4.0 0.00 0.00 0.00 87 1013.5
20260906105046 52 30 1.0 2.0 0.00 0.00 0.00 87 1013.5
20260906104544 53 26 0.0 2.0 0.00 0.00 0.00 86 1013.5
20260906104044 53 26 0.0 3.0 0.00 0.00 0.00 86 1013.5
20260906103542 53 26 0.0 3.0 0.00 0.00 0.00 87 1013.5
20260906103053 53 292 1.0 5.0 0.00 0.00 0.00 87 1013.6
20260906102546 53 296 2.0 5.0 0.00 0.00 0.00 87 1013.6
20260906102043 53 337 1.0 2.0 0.00 0.00 0.00 86 1013.6
20260906101541 53 337 0.0 3.0 0.00 0.00 0.00 87 1013.7
20260906101042 53 337 1.0 3.0 0.00 0.00 0.00 87 1013.7
20260906100545 53 336 0.0 2.0 0.00 0.00 0.00 87 1013.7
20260906100041 53 337 1.0 3.0 0.00 0.00 0.00 87 1013.7
20260906095540 53 333 0.0 2.0 0.00 0.00 0.00 87 1013.7
20260906095039 53 33 1.0 3.0 0.00 0.00 0.00 87 1013.7
20260906094539 53 33 1.0 3.0 0.00 0.00 0.00 86 1013.7
20260906094041 53 35 0.0 2.0 0.00 0.00 0.00 86 1013.7
20260906093537 53 35 0.0 2.0 0.00 0.00 0.00 86 1013.7
20260906093042 53 35 0.0 2.0 0.00 0.00 0.00 85 1013.8
20260906092535 53 35 0.0 3.0 0.00 0.00 0.00 85 1013.8
20260906092035 54 35 0.0 3.0 0.00 0.00 0.00 85 1013.9
20260906091535 54 5 1.0 3.0 0.00 0.00 0.00 85 1013.9
20260906091034 54 25 0.0 3.0 0.00 0.00 0.00 84 1014.0
20260906090533 54 360 1.0 3.0 0.00 0.00 0.00 84 1014.0
20260906090034 54 306 0.0 3.0 0.00 0.00 0.00 84 1014.0
20260906085533 55 306 0.0 6.0 0.00 0.00 0.00 84 1014.1
20260906085033 54 304 2.0 6.0 0.00 0.00 0.00 85 1014.1
20260906084533 54 270 1.0 6.0 0.00 0.00 0.00 85 1014.1
20260906084036 54 286 2.0 6.0 0.00 0.00 0.00 86 1014.0
20260906083534 54 337 1.0 5.0 0.00 0.00 0.00 86 1014.1
20260906083032 54 349 2.0 5.0 0.00 0.00 0.00 86 1014.0
20260906082531 54 73 1.0 3.0 0.00 0.00 0.00 86 1014.1
20260906082031 54 61 0.0 4.0 0.00 0.00 0.00 86 1014.0
20260906081531 54 308 0.0 7.0 0.00 0.00 0.00 85 1013.9
20260906081032 54 323 0.0 7.0 0.00 0.00 0.00 85 1013.9
20260906080534 54 286 1.0 7.0 0.00 0.00 0.00 85 1014.0
20260906080030 54 268 2.0 7.0 0.00 0.00 0.00 86 1014.0
20260906075529 54 319 2.0 4.0 0.00 0.00 0.00 86 1014.0
20260906075029 54 327 1.0 4.0 0.00 0.00 0.00 86 1014.0
20260906074528 54 347 1.0 4.0 0.00 0.00 0.00 86 1014.0
20260906074028 54 354 0.0 3.0 0.00 0.00 0.00 86 1014.0
20260906073527 55 354 1.0 3.0 0.00 0.00 0.00 86 1014.0
20260906073026 55 96 0.0 6.0 0.00 0.00 0.00 86 1014.1
20260906072527 54 15 1.0 6.0 0.00 0.00 0.00 86 1014.1
20260906072029 55 213 1.0 6.0 0.00 0.00 0.00 86 1014.1
20260906071525 55 21 0.0 3.0 0.00 0.00 0.00 86 1014.1
20260906071025 55 11 1.0 3.0 0.00 0.00 0.00 85 1014.2
20260906070524 55 330 1.0 6.0 0.00 0.00 0.00 85 1014.3
20260906070023 55 17 2.0 6.0 0.00 0.00 0.00 86 1014.3
20260906065524 55 309 2.0 4.0 0.00 0.00 0.00 86 1014.3
20260906065023 55 54 1.0 2.0 0.00 0.00 0.00 86 1014.3
20260906064533 55 54 0.0 4.0 0.00 0.00 0.00 86 1014.3
20260906064024 55 56 1.0 5.0 0.00 0.00 0.00 86 1014.3
20260906063522 55 289 1.0 5.0 0.00 0.00 0.00 86 1014.2
20260906063022 55 290 0.0 5.0 0.00 0.00 0.00 86 1014.2
20260906062521 55 296 1.0 5.0 0.00 0.00 0.00 86 1014.2
20260906062022 55 248 1.0 3.0 0.00 0.00 0.00 86 1014.2
20260906061525 55 10 0.0 3.0 0.00 0.00 0.00 86 1014.2
20260906061021 55 11 1.0 3.0 0.00 0.00 0.00 86 1014.2
20260906060524 55 317 1.0 3.0 0.00 0.00 0.00 87 1014.1
20260906060021 55 259 1.0 3.0 0.00 0.00 0.00 87 1014.2
20260906055522 55 325 0.0 5.0 0.00 0.00 0.00 87 1014.2
20260906055021 55 346 1.0 5.0 0.00 0.00 0.00 87 1014.2
20260906054532 55 23 0.0 3.0 0.00 0.00 0.00 87 1014.2
20260906054022 55 262 0.0 3.0 0.00 0.00 0.00 86 1014.2
20260906053523 55 262 0.0 3.0 0.00 0.00 0.00 86 1014.2
20260906053019 56 348 1.0 2.0 0.00 0.00 0.00 86 1014.2
20260906052519 56 290 0.0 3.0 0.00 0.00 0.00 86 1014.2
20260906052019 56 286 0.0 3.0 0.00 0.00 0.00 86 1014.2
20260906051518 56 258 0.0 2.0 0.00 0.00 0.00 85 1014.3
20260906051020 56 250 0.0 2.0 0.00 0.00 0.00 86 1014.3
20260906050524 56 253 0.0 2.0 0.00 0.00 0.00 86 1014.3
20260906050018 56 253 0.0 3.0 0.00 0.00 0.00 86 1014.3
20260906045521 56 121 1.0 3.0 0.00 0.00 0.00 86 1014.4
20260906045018 56 73 0.0 7.0 0.00 0.00 0.00 86 1014.3
20260906044518 56 316 0.0 7.0 0.00 0.00 0.00 86 1014.3
20260906044018 56 307 0.0 4.0 0.00 0.00 0.00 86 1014.3
20260906043517 57 247 0.0 4.0 0.00 0.00 0.00 86 1014.4
20260906043023 57 277 1.0 4.0 0.00 0.00 0.00 86 1014.4
20260906042517 57 284 1.0 3.0 0.00 0.00 0.00 86 1014.4
20260906042017 57 262 1.0 7.0 0.00 0.00 0.00 86 1014.4
20260906041517 57 239 0.0 7.0 0.00 0.00 0.00 86 1014.4
20260906041019 57 298 1.0 3.0 0.00 0.00 0.00 86 1014.4
20260906040535 57 352 1.0 2.0 0.00 0.00 0.00 86 1014.4
20260906040035 57 303 0.0 2.0 0.00 0.00 0.00 85 1014.3
20260906035536 58 303 0.0 2.0 0.00 0.00 0.00 85 1014.3
20260906035035 58 303 1.0 3.0 0.00 0.00 0.00 84 1014.3
20260906034535 58 303 1.0 3.0 0.00 0.00 0.00 84 1014.2
20260906034034 58 288 0.0 2.0 0.00 0.00 0.00 83 1014.3
20260906033534 59 288 0.0 3.0 0.00 0.00 0.00 83 1014.2
20260906033037 59 286 1.0 3.0 0.00 0.00 0.00 82 1014.2
20260906032534 59 286 0.0 3.0 0.00 0.00 0.00 82 1014.1
20260906032034 59 286 0.0 3.0 0.00 0.00 0.00 83 1014.1
20260906031534 59 264 0.0 3.0 0.00 0.00 0.00 83 1014.1
20260906031033 59 256 0.0 2.0 0.00 0.00 0.00 82 1014.1
20260906030534 60 255 0.0 2.0 0.00 0.00 0.00 82 1014.1
20260906030033 60 255 0.0 2.0 0.00 0.00 0.00 82 1014.2
20260906025535 60 255 0.0 6.0 0.00 0.00 0.00 81 1014.1
20260906025033 60 253 0.0 6.0 0.00 0.00 0.00 81 1014.1
20260906024533 60 225 1.0 3.0 0.00 0.00 0.00 81 1014.1
20260906024036 60 281 0.0 3.0 0.00 0.00 0.00 81 1014.1
20260906023533 61 257 0.0 2.0 0.00 0.00 0.00 80 1014.1
20260906023034 61 257 0.0 2.0 0.00 0.00 0.00 80 1014.1
20260906022532 61 257 0.0 2.0 0.00 0.00 0.00 79 1014.1
20260906022032 62 257 0.0 2.0 0.00 0.00 0.00 78 1014.0
20260906021540 62 257 0.0 4.0 0.00 0.00 0.00 77 1014.0
20260906021031 62 257 0.0 4.0 0.00 0.00 0.00 77 1014.0
20260906020532 62 221 0.0 5.0 0.00 0.00 0.00 76 1014.0
20260906020032 63 204 1.0 4.0 0.00 0.00 0.00 76 1014.0
20260906015531 63 173 1.0 3.0 0.00 0.00 0.00 75 1014.0
20260906015031 63 329 0.0 4.0 0.00 0.00 0.00 74 1013.9
20260906014536 64 328 1.0 4.0 0.00 0.00 0.00 73 1013.8
20260906014031 64 268 0.0 5.0 0.00 0.00 0.00 72 1013.8
20260906013532 64 302 0.0 4.0 0.00 0.00 0.00 71 1013.8
20260906013040 65 302 1.0 5.0 0.00 0.00 0.00 70 1013.7
20260906012532 65 308 1.0 5.0 0.00 0.00 0.00 71 1013.6
20260906012030 65 282 0.0 5.0 0.00 0.00 0.00 69 1013.5
20260906011534 66 176 1.0 4.0 0.00 0.00 0.00 67 1013.3
20260906011030 66 194 0.0 2.0 0.00 0.00 0.00 66 1013.3
20260906010532 66 194 0.0 2.0 0.00 0.00 0.00 64 1013.3
20260906010029 67 194 0.0 2.0 0.00 0.00 0.00 62 1013.3
20260906005527 67 194 0.0 3.0 0.00 0.00 0.00 63 1013.3
20260906005026 68 195 1.0 3.0 0.00 0.00 0.00 60 1013.2
20260906004525 67 171 0.0 3.0 0.00 0.00 0.00 62 1013.2
20260906004025 67 171 0.0 3.0 0.00 0.00 0.00 62 1013.3
20260906003521 68 234 0.0 4.0 0.00 0.00 0.00 60 1013.3
20260906003022 68 251 1.0 3.0 0.00 0.00 0.00 59 1013.3
20260906002518 68 101 0.0 4.0 0.00 0.00 0.00 60 1013.3
20260906002017 68 101 1.0 4.0 0.00 0.00 0.00 60 1013.3
20260906001516 69 122 1.0 3.0 0.00 0.00 0.00 58 1013.3
20260906001014 69 101 0.0 3.0 0.00 0.00 0.00 60 1013.3
20260906000512 68 90 0.0 2.0 0.00 0.00 0.00 58 1013.3
20260906000011 68 72 1.0 3.0 0.00 0.00 0.00 58 1013.2
20260905235509 68 186 1.0 3.0 0.00 0.00 0.00 58 1013.3
20260905235009 68 177 0.0 6.0 0.00 0.00 0.00 58 1013.3
20260905234509 68 165 1.0 6.0 0.00 0.00 0.00 56 1013.3
20260905234008 69 140 0.0 3.0 0.00 0.00 0.00 60 1013.3
20260905233508 69 143 0.0 2.0 0.00 0.00 0.00 61 1013.3
20260905233009 69 143 0.0 4.0 0.00 0.00 0.00 61 1013.4
20260905232509 69 143 2.0 4.0 0.00 0.00 0.00 59 1013.4
20260905232007 69 144 1.0 4.0 0.00 0.00 0.00 62 1013.4
20260905231507 69 134 0.0 3.0 0.00 0.00 0.00 61 1013.5
20260905231006 69 133 1.0 3.0 0.00 0.00 0.00 59 1013.5
20260905230506 70 179 0.0 5.0 0.00 0.00 0.00 57 1013.4
20260905230008 71 184 1.0 5.0 0.00 0.00 0.00 57 1013.4
20260905225506 71 27 1.0 3.0 0.00 0.00 0.00 57 1013.4